Location: Newark
(26.8229°N, 81.7649°W)
Time: 02:04:59
(UTC+00:00)

Hubble Space Telescope - Pass Details

Date: 31 January 2020
Orbit: 536 x 540 km, 28.5° (Epoch: 25 February)

Event Time Altitude Azimuth Distance (km) Brightness Sun altitude
Exits shadow 11:45:46 - 264° (W) 2,077 3.2 -6.6°
Reaches altitude 10° 11:46:32 10° 265° (W) 1,776 2.8 -6.5°
Maximum altitude 11:50:39 79° 352° (N) 544 0.8 -5.6°
Drops below altitude 10° 11:54:46 10° 79° (E) 1,779 4.6 -4.7°
Sets 11:57:02 0° 81° (E) 2,670 5.6 -4.2°
